This demonstration page uses our WeatherBlox Daily Observations layout. Learn more.

39.92423, -83.80882

Hourly Observations for July 31, 2016

Temp ( °F °C ) Dew Point ( °F °C ) Humidity (%) Winds ( mph kmh ) Pressure ( in mb ) Visibility ( mi km ) Precip ( " mm )
12:56 am 00:56 Cloudy 71 21.7 69 20.6 94 94 Calm 29.97 1015 10 16.0934 0 0
1:56 am 01:56 Clear 69 20.6 67 19.4 93 93 Calm 29.96 1015 10 16.0934 0 0
2:56 am 02:56 Partly Cloudy 67 19.4 66 18.9 97 97 Calm 29.96 1015 8 12.87472 0 0
3:56 am 03:56 Clear 67 19.4 66 18.9 97 97 SW 6 9 29.95 1014 10 16.0934 0 0
4:56 am 04:56 Clear 66 18.9 65 18.3 96 96 SW 3 6 29.96 1015 10 16.0934 0 0
5:56 am 05:56 Mostly Clear with Mist and Fog 66 18.9 65 18.3 96 96 undefined N/A 29.97 1015 6 9.65604 0 0
6:56 am 06:56 Sunny with Mist and Fog 65 18.3 64 17.8 97 97 Calm N/A 3 4.82802 0 0
7:56 am 07:56 Partly Cloudy 68 20 67 19.4 96 96 undefined N/A 30.01 1016 9 14.48406 0 0
8:56 am 08:56 Sunny 74 23.3 69 20.6 85 85 W 7 11 30.02 1017 10 16.0934 0 0
9:56 am 09:56 Sunny 77 25 70 21.1 79 79 W 5 7 30.02 1017 10 16.0934 0 0
10:56 am 10:56 Mostly Cloudy 78 25.6 67 19.4 69 69 WSW 7 11 30.03 1017 10 16.0934 0 0
11:56 am 11:56 Partly Cloudy 81 27.2 67 19.4 62 62 WSW 12 19 30.02 1017 10 16.0934 0 0
12:56 pm 12:56 Sunny 82 27.8 67 19.4 60 60 W 8 13 30.02 1017 10 16.0934 0 0
1:56 pm 13:56 Mostly Cloudy 82 27.8 67 19.4 60 60 WSW 10 17 30.02 1017 10 16.0934 0 0
2:56 pm 14:56 Sunny 83 28.3 67 19.4 59 59 W 6 9 30.01 1016 10 16.0934 0 0
3:56 pm 15:56 Sunny 84 28.9 67 19.4 57 57 WSW 5 7 30.01 1016 10 16.0934 0 0
4:56 pm 16:56 Sunny 84 28.9 66 18.9 55 55 WSW 7 11 29.99 1016 10 16.0934 0 0
5:56 pm 17:56 Sunny 84 28.9 66 18.9 55 55 W 9 15 29.98 1015 10 16.0934 0 0
6:56 pm 18:56 Sunny 82 27.8 67 19.4 60 60 WNW 8 13 29.98 1015 10 16.0934 0 0
7:56 pm 19:56 Sunny 79 26.1 68 20 69 69 W 5 7 30 1016 10 16.0934 0 0
8:56 pm 20:56 Clear 76 24.4 69 20.6 79 79 Calm N/A 10 16.0934 0 0
9:56 pm 21:56 Partly Cloudy 73 22.8 68 20 84 84 W 5 7 30.02 1017 10 16.0934 0 0
10:56 pm 22:56 Mostly Clear 74 23.3 68 20 82 82 Calm 30.04 1017 10 16.0934 0 0
11:56 pm 23:56 Mostly Clear 72 22.2 67 19.4 84 84 Calm 30.04 1017 10 16.0934 0 0

Powered by AerisWeather